Fort Bragg, NC

3:35 PM EST on January 21, 2018 (GMT -0500)
Simmons Army Air Field

Weather History for KFBG - May, 2014

Change the Weather History Date:

Friday, May 23, 2014

  Actual Average Record
Temperature  
Mean Temperature 78 °F -  
Max Temperature 89 °F 80 °F 92 °F (2011)
Min Temperature 68 °F 60 °F 44 °F (2002)
Cooling Degree Days 14    
Growing Degree Days 28 (Base 50)    
Moisture  
Dew Point 62 °F    
Average Humidity 58    
Maximum Humidity 88    
Minimum Humidity 32    
Precipitation  
Precipitation 0.00 in - - ()
Sea Level Pressure  
Sea Level Pressure 29.95 in    
Wind  
Wind Speed 6 mph (NW)    
Max Wind Speed 15 mph    
Max Gust Speed 22 mph    
Visibility 10 miles    
Events      
Averages and records for this station are not official NWS values.
T = Trace of Precipitation, MM = Missing Value Source: NWS Daily Summary

Daily Weather History Graph

Daily Weather History Graph

Search for Another Location

Airport or City:

Trip Planner

Search our weather history database for the weather conditions in past years. The results will help you decide how hot, cold, wet, or windy it might be!

Date:

Astronomy

May. 23, 2014 Rise Set
Actual Time 6:06 AM EDT 8:18 PM EDT
Civil Twilight 5:37 AM EDT 8:47 PM EDT
Nautical Twilight 5:02 AM EDT 9:22 PM EDT
Astronomical Twilight 4:24 AM EDT 10:00 PM EDT
Moon 2:47 AM EDT (5/23) 3:20 PM EDT (5/23)
Length of Visible Light 15h 09m
Length of Day
14h 12m
Waning Crescent, 27% of the Moon is Illuminated
May 23
Waning Crescent
May 28
New
Jun 5
First Quarter
Jun 13
Full
Jun 19
Last Quarter

Hourly Weather History & Observations

Time (EDT) Temp. Heat Index Dew Point Humidity Pressure Visibility Wind Dir Wind Speed Gust Speed Precip Events Conditions
12:58 AM 75.7 °F - 62.2 °F 63% 29.94 in 10.0 mi SW 3.5 mph - N/A   Clear
1:58 AM 71.2 °F - 63.1 °F 75% 29.91 in 10.0 mi West 1.2 mph - N/A   Clear
2:58 AM 70.2 °F - 63.7 °F 80% 29.91 in 10.0 mi WNW 8.1 mph - N/A   Clear
3:58 AM 74.5 °F - 63.1 °F 68% 29.94 in 10.0 mi NW 6.9 mph - N/A   Scattered Clouds
4:58 AM 71.1 °F - 63.7 °F 77% 29.94 in 10.0 mi NNW 3.5 mph - N/A   Clear
5:58 AM 68.0 °F - 64.2 °F 88% 29.94 in 10.0 mi North 3.5 mph - N/A   Clear
6:58 AM 69.3 °F - 63.3 °F 81% 29.97 in 10.0 mi WNW 3.5 mph - N/A   Clear
7:58 AM 75.6 °F - 64.9 °F 69% 29.99 in 10.0 mi NNW 3.5 mph - N/A   Clear
8:58 AM 79.3 °F - 64.6 °F 60% 29.99 in 10.0 mi NNW 4.6 mph - N/A   Clear
9:58 AM 82.0 °F 83.4 °F 64.0 °F 54% 29.99 in 10.0 mi North 3.5 mph - N/A   Clear
10:58 AM 84.2 °F 85.2 °F 63.1 °F 49% 30.00 in 10.0 mi North 10.4 mph - N/A   Clear
11:58 AM 84.9 °F 85.6 °F 62.8 °F 47% 30.02 in 10.0 mi WNW 11.5 mph - N/A   Partly Cloudy
12:58 PM 82.8 °F 83.8 °F 63.0 °F 51% 29.97 in 10.0 mi North 10.4 mph 18.4 mph N/A   Mostly Cloudy
1:58 PM 84.6 °F 85.4 °F 62.8 °F 48% 29.96 in 10.0 mi Variable 2.3 mph - N/A   Clear
2:58 PM 88.0 °F 87.6 °F 59.9 °F 39% 29.94 in 10.0 mi WNW 15.0 mph 18.4 mph N/A   Clear
3:58 PM 89.2 °F 87.5 °F 55.6 °F 32% 29.94 in 10.0 mi WNW 15.0 mph 21.9 mph N/A   Clear
4:58 PM 88.7 °F 87.1 °F 55.8 °F 33% 29.92 in 10.0 mi NW 11.5 mph - N/A   Clear
5:58 PM 87.6 °F 86.3 °F 57.2 °F 35% 29.92 in 10.0 mi NW 9.2 mph - N/A   Clear
6:58 PM 86.2 °F 85.6 °F 59.0 °F 40% 29.94 in 10.0 mi NW 10.4 mph - N/A   Clear
7:58 PM 81.9 °F 82.3 °F 60.6 °F 48% 29.94 in 10.0 mi NNW 4.6 mph - N/A   Clear
8:58 PM 78.8 °F - 62.4 °F 57% 29.94 in 10.0 mi NW 4.6 mph - N/A   Mostly Cloudy
9:58 PM 76.6 °F - 62.1 °F 61% 29.94 in 10.0 mi North 5.8 mph - N/A   Clear
10:58 PM 75.2 °F - 63.9 °F 68% 29.97 in 10.0 mi NNW 2.3 mph - N/A   Scattered Clouds
11:58 PM 72.9 °F - 63.5 °F 72% 29.99 in 10.0 mi NNW 5.8 mph - N/A   Partly Cloudy